#timestamp,LO_Frequency,Hit 
1499497215.1,286047001.4,N
1499497235.9,286047002.0,N
1499497255.7,286047001.8,N
1499497275.5,286047001.6,N
1499497295.4,286046999.9,N
1499497315.2,286046999.8,N
1499497335.0,286046999.8,N
1499497335.9,286046999.8,N
1499497355.8,286047002.1,N
1499497375.6,286047001.7,N
1499497395.5,286047002.5,N
1499497415.3,286047002.7,N
1499497435.1,286047001.0,N
1499497455.9,286046998.2,N
1499497475.7,286046998.5,N
1499497495.5,286046998.4,N
1499497515.4,286046999.4,N
1499497535.2,286046996.6,N
1499497555.1,286046996.5,N
1499497556.0,286046996.5,N
1499497575.8,286046996.7,N
1499497595.6,286046996.9,N
1499497615.5,286046997.2,N
1499497635.3,286046999.2,N
1499497655.2,286046999.4,N
1499497675.9,286046996.5,N
1499497695.7,286046996.7,N
1499497715.6,286046997.8,N
1499497735.4,286046994.9,N
1499497755.2,286046995.0,N
1499497775.1,286046995.0,N
1499497776.0,286046995.0,N
1499497795.8,286046998.0,N
1499497815.7,286046995.1,N
1499497835.5,286046996.3,N
1499497855.4,286046995.8,N
1499497875.2,286046996.1,N
1499497895.0,286046993.8,N
1499497895.9,286046993.8,N
1499497915.8,286046995.8,N
1499497935.6,286046995.3,N
1499497955.4,286046997.9,N
1499497975.3,286046994.9,N
1499497995.1,286046995.2,N
1499498015.9,286046997.6,N
1499498035.7,286046995.2,N
1499498055.5,286046995.6,N
1499498075.4,286046998.0,N
1499498095.2,286046997.6,N
1499498115.0,286046999.1,N
1499498115.9,286046999.1,N
1499498135.8,286046997.5,N
1499498155.6,286046997.0,N
1499498175.5,286046999.2,N
1499498195.3,286046997.1,N
1499498215.1,286046997.1,N
1499498235.9,286046996.5,N
1499498255.7,286046998.7,N
1499498275.5,286046996.9,N
1499498295.4,286046999.0,N
1499498315.2,286046997.4,N
1499498335.1,286046997.2,N
1499498336.0,286046997.2,N
1499498355.8,286046999.6,N
1499498375.6,286046999.1,N
1499498395.5,286046998.8,N
1499498415.3,286046999.2,N
1499498435.2,286046999.1,N
1499498455.9,286046997.3,N
1499498475.7,286046999.5,N
1499498495.6,286046999.3,N
1499498515.4,286046999.1,N
1499498535.2,286046996.7,N
1499498555.1,286046997.6,N
1499498556.0,286046997.6,N
1499498575.8,286046997.6,N
1499498595.7,286046997.7,N
1499498615.5,286046997.3,N
1499498635.3,286046999.6,N
1499498655.2,286046999.5,N
1499498675.0,286046999.3,N
1499498675.9,286046999.3,N
1499498695.7,286046998.4,N
1499498715.6,286046999.0,N
1499498735.4,286046996.9,N
1499498755.3,286046999.1,N
1499498775.1,286046999.0,N
1499498795.8,286046998.9,N
1499498815.7,286046996.5,N
1499498835.5,286046996.5,N
1499498855.4,286046997.4,N
1499498875.2,286046996.9,N
1499498895.0,286046999.4,N
1499498895.9,286046999.4,N
1499498915.8,286046999.0,N
1499498935.6,286046999.6,N
1499498955.5,286046998.5,N
1499498975.3,286046998.8,N
1499498995.1,286046999.3,N
1499499015.9,286046998.8,N
1499499035.7,286046999.0,N
1499499055.6,286046998.4,N
1499499075.4,286046999.0,N
1499499095.2,286047001.1,N
1499499115.1,286046998.8,N
1499499116.0,286046998.8,N
1499499135.8,286047000.0,N
1499499155.6,286046998.5,N
1499499175.5,286046998.8,N
1499499195.3,286046999.9,N
1499499215.2,286047002.8,N
1499499235.9,286046999.7,N
1499499255.7,286047001.6,N
1499499275.6,286047001.4,N
1499499295.4,286047003.9,N
1499499315.2,286047004.0,N
1499499335.1,286047002.2,N
1499499336.0,286047002.2,N
1499499355.8,286047001.9,N
1499499375.7,286047001.9,N
1499499395.5,286047001.8,N
1499499415.3,286047002.6,N
1499499435.2,286047002.1,N
1499499455.0,286047001.9,N
1499499455.9,286047001.9,N
1499499475.8,286047004.4,N
1499499495.6,286047004.4,N
1499499515.4,286047003.9,N
1499499535.3,286047004.0,N
1499499555.1,286047001.7,N
1499499575.8,286047004.0,N
1499499595.7,286047003.9,N
1499499615.5,286047001.9,N
1499499635.4,286047004.4,N
1499499655.2,286047001.6,N
1499499675.0,286047001.3,N
1499499675.9,286047001.3,N
1499499695.8,286047004.4,N
1499499715.6,286047004.3,N
1499499735.4,286047003.7,N
1499499755.3,286047003.7,N
1499499775.1,286047006.0,N
1499499825.9,286047003.3,Y
1499499835.8,286047001.9,N
1499499855.7,286046999.9,N
1499499875.5,286047002.4,N
1499499895.3,286047002.6,N
1499499915.2,286047002.2,N
1499499935.9,286047002.3,N
1499499955.7,286046999.8,N
1499499975.6,286047002.8,N
1499499995.4,286047002.8,N
1499500015.3,286047000.2,N
1499500035.1,286046999.9,N
1499500036.0,286046999.9,N
1499500055.8,286047002.4,N
1499500075.7,286047002.4,N
1499500095.5,286047001.6,N
1499500115.3,286047003.3,N
1499500135.2,286047003.7,N
1499500155.0,286047004.3,N
1499500155.9,286047004.3,N
1499500175.8,286047001.7,N
1499500195.6,286047003.2,N
1499500215.4,286047004.0,N
1499500235.3,286047001.3,N
1499500255.1,286047001.4,N
1499500275.8,286047003.9,N
1499500295.7,286047004.2,N
1499500315.5,286047004.2,N
1499500335.4,286047002.1,N
1499500355.2,286047001.7,N
1499500375.0,286047004.1,N
1499500375.9,286047004.1,N
1499500395.8,286047002.2,N
1499500415.6,286047001.4,N
1499500435.4,286047001.5,N
1499500455.3,286047001.7,N
1499500475.1,286047004.4,N
1499500495.9,286047001.4,N
1499500515.7,286047002.6,N
1499500535.5,286047002.6,N
1499500555.4,286047001.7,N
1499500575.2,286047001.8,N
1499500595.0,286047001.9,N
1499500595.9,286047001.9,N
1499500615.8,286047001.9,N
1499500635.6,286047002.2,N
1499500655.5,286046999.8,N
1499500675.3,286047000.1,N
1499500695.1,286047002.4,N
1499500715.9,286047002.7,N
1499500735.7,286047002.8,N
1499500755.5,286047002.6,N
1499500775.4,286047002.6,N
1499500795.2,286047000.1,N
